TimeCST,TemperatureF,Dew PointF,Humidity,Sea Level PressureIn,VisibilityMPH,Wind Direction,Wind SpeedMPH,Gust SpeedMPH,PrecipitationIn,Events,Conditions,WindDirDegrees,DateUTC
12:56 AM,41.0,32.0,70,30.28,10.0,SE,4.6,-,N/A,,Clear,140,2013-02-18 06:56:00
1:56 AM,41.0,32.0,70,30.27,10.0,SE,4.6,-,N/A,,Clear,140,2013-02-18 07:56:00
2:56 AM,39.9,33.1,77,30.25,10.0,SE,5.8,-,N/A,,Clear,130,2013-02-18 08:56:00
3:56 AM,39.9,34.0,79,30.24,10.0,SE,6.9,-,N/A,,Clear,140,2013-02-18 09:56:00
4:56 AM,42.1,36.0,79,30.26,10.0,SE,4.6,-,N/A,,Clear,140,2013-02-18 10:56:00
5:56 AM,43.0,37.9,82,30.26,10.0,SE,5.8,-,N/A,,Partly Cloudy,140,2013-02-18 11:56:00
6:56 AM,44.1,39.9,85,30.27,10.0,SE,6.9,-,N/A,,Scattered Clouds,140,2013-02-18 12:56:00
7:56 AM,51.1,43.0,74,30.27,10.0,SE,9.2,-,N/A,,Mostly Cloudy,140,2013-02-18 13:56:00
8:56 AM,59.0,43.0,55,30.28,10.0,SSE,13.8,23.0,N/A,,Scattered Clouds,150,2013-02-18 14:56:00
9:56 AM,61.0,39.9,46,30.28,10.0,SSE,21.9,27.6,N/A,,Scattered Clouds,160,2013-02-18 15:56:00
10:56 AM,63.0,39.9,43,30.29,10.0,SSE,15.0,26.5,N/A,,Scattered Clouds,160,2013-02-18 16:56:00
11:56 AM,63.0,42.1,46,30.25,10.0,SE,24.2,33.4,N/A,,Mostly Cloudy,140,2013-02-18 17:56:00
12:56 PM,62.1,42.1,48,30.22,10.0,SE,24.2,33.4,N/A,,Mostly Cloudy,140,2013-02-18 18:56:00
1:56 PM,62.1,43.0,50,30.19,10.0,SE,26.5,33.4,N/A,,Mostly Cloudy,130,2013-02-18 19:56:00
2:56 PM,60.1,43.0,53,30.16,10.0,SE,23.0,36.8,N/A,,Mostly Cloudy,140,2013-02-18 20:56:00
3:56 PM,60.1,44.1,55,30.15,10.0,SE,20.7,29.9,N/A,,Overcast,140,2013-02-18 21:56:00
4:56 PM,57.9,44.1,60,30.14,10.0,SE,21.9,32.2,N/A,,Overcast,130,2013-02-18 22:56:00
5:56 PM,57.0,45.0,64,30.13,10.0,SE,15.0,23.0,0.00,,Overcast,130,2013-02-18 23:56:00
6:56 PM,57.0,46.0,67,30.12,10.0,SE,18.4,25.3,N/A,,Overcast,140,2013-02-19 00:56:00
7:56 PM,57.9,46.9,67,30.11,10.0,SE,17.3,26.5,N/A,,Overcast,140,2013-02-19 01:56:00
8:56 PM,59.0,48.0,67,30.10,10.0,SSE,20.7,28.8,N/A,,Mostly Cloudy,150,2013-02-19 02:56:00
9:56 PM,57.9,50.0,75,30.08,10.0,SSE,20.7,27.6,0.00,,Overcast,150,2013-02-19 03:56:00
10:56 PM,59.0,51.1,75,30.04,10.0,SE,16.1,26.5,N/A,,Mostly Cloudy,140,2013-02-19 04:56:00
11:07 PM,60.8,51.8,72,30.04,10.0,SSE,17.3,-,N/A,,Overcast,150,2013-02-19 05:07:00
11:56 PM,61.0,52.0,72,30.04,10.0,SSE,16.1,-,N/A,,Overcast,160,2013-02-19 05:56:00